Time,TemperatureF,DewpointF,PressureIn,WindDirection,WindDirectionDegrees,WindSpeedMPH,WindSpeedGustMPH,Humidity,HourlyPrecipIn,Conditions,Clouds,dailyrainin,SoftwareType,DateUTC
2013-01-19 00:03:00,38.9,29.9,29.91,SW,226,0.0,9.0,70,0.00,,---,0.00,VWS V14.01,2013-01-19 06:03:00,
2013-01-19 00:08:00,38.8,29.8,29.90,SSW,193,0.0,7.2,70,0.00,,---,0.00,VWS V14.01,2013-01-19 06:08:00,
2013-01-19 00:13:00,38.7,30.0,29.90,WSW,258,3.6,5.4,71,0.00,,---,0.00,VWS V14.01,2013-01-19 06:13:00,
2013-01-19 00:18:00,38.7,30.0,29.91,South,179,5.4,10.8,71,0.00,,---,0.00,VWS V14.01,2013-01-19 06:18:00,
2013-01-19 00:23:00,38.9,30.2,29.91,SSW,198,7.2,9.0,71,0.00,,---,0.00,VWS V14.01,2013-01-19 06:23:00,
2013-01-19 00:28:00,38.9,30.2,29.90,SSW,208,9.0,10.8,71,0.00,,---,0.00,VWS V14.01,2013-01-19 06:28:00,
2013-01-19 00:33:00,38.9,30.2,29.91,SW,225,10.8,10.8,71,0.00,,---,0.00,VWS V14.01,2013-01-19 06:33:00,
2013-01-19 00:38:00,38.9,30.2,29.91,SW,222,0.0,9.0,71,0.00,,---,0.00,VWS V14.01,2013-01-19 06:38:00,
2013-01-19 00:43:00,38.8,30.1,29.91,SSW,211,3.6,7.2,71,0.00,,---,0.00,VWS V14.01,2013-01-19 06:43:00,
2013-01-19 00:48:00,38.8,30.1,29.91,SW,214,0.0,7.2,71,0.00,,---,0.00,VWS V14.01,2013-01-19 06:48:00,
2013-01-19 00:53:00,38.7,30.3,29.91,South,178,0.0,5.4,72,0.00,,---,0.00,VWS V14.01,2013-01-19 06:53:00,
2013-01-19 00:58:00,38.6,30.2,29.91,SSE,148,1.8,7.2,72,0.00,,---,0.00,VWS V14.01,2013-01-19 06:58:00,
2013-01-19 01:03:00,38.5,30.1,29.91,SW,226,1.8,7.2,72,0.00,,---,0.00,VWS V14.01,2013-01-19 07:03:00,
2013-01-19 01:08:00,38.4,30.0,29.91,SSE,161,0.0,7.2,72,0.00,,---,0.00,VWS V14.01,2013-01-19 07:08:00,
2013-01-19 01:13:00,38.4,30.0,29.91,WSW,240,5.4,5.4,72,0.00,,---,0.00,VWS V14.01,2013-01-19 07:13:00,
2013-01-19 01:18:00,38.4,30.0,29.91,SSW,201,1.8,10.8,72,0.00,,---,0.00,VWS V14.01,2013-01-19 07:18:00,
2013-01-19 01:23:00,38.3,30.0,29.92,SSE,158,12.6,14.4,72,0.00,,---,0.00,VWS V14.01,2013-01-19 07:23:00,
2013-01-19 01:28:00,38.1,30.1,29.92,SW,230,1.8,5.4,73,0.00,,---,0.00,VWS V14.01,2013-01-19 07:28:00,
2013-01-19 01:33:00,38.0,30.0,29.92,West,273,3.6,9.0,73,0.00,,---,0.00,VWS V14.01,2013-01-19 07:33:00,
2013-01-19 01:38:00,37.9,29.9,29.92,SW,224,1.8,10.8,73,0.00,,---,0.00,VWS V14.01,2013-01-19 07:38:00,
2013-01-19 01:43:00,37.8,29.8,29.92,South,169,0.0,3.6,73,0.00,,---,0.00,VWS V14.01,2013-01-19 07:43:00,
2013-01-19 01:48:00,37.6,29.9,29.92,WSW,257,0.0,5.4,73,0.00,,---,0.00,VWS V14.01,2013-01-19 07:48:00,
2013-01-19 01:53:00,37.5,29.8,29.92,West,270,1.8,7.2,73,0.00,,---,0.00,VWS V14.01,2013-01-19 07:53:00,
2013-01-19 01:58:00,37.5,29.8,29.92,SW,218,0.0,5.4,73,0.00,,---,0.00,VWS V14.01,2013-01-19 07:58:00,
2013-01-19 02:03:00,37.7,30.0,29.92,WNW,287,0.0,7.2,73,0.00,,---,0.00,VWS V14.01,2013-01-19 08:03:00,
2013-01-19 02:08:00,37.6,29.9,29.92,SSE,150,3.6,9.0,73,0.00,,---,0.00,VWS V14.01,2013-01-19 08:08:00,
2013-01-19 02:13:00,37.6,29.9,29.92,SSW,201,3.6,3.6,73,0.00,,---,0.00,VWS V14.01,2013-01-19 08:13:00,
2013-01-19 02:18:00,37.6,29.9,29.92,West,259,1.8,5.4,73,0.00,,---,0.00,VWS V14.01,2013-01-19 08:18:00,
2013-01-19 02:23:00,37.6,30.2,29.92,SSW,193,0.0,10.8,74,0.00,,---,0.00,VWS V14.01,2013-01-19 08:23:00,
2013-01-19 02:28:00,37.6,30.2,29.92,SW,229,3.6,7.2,74,0.00,,---,0.00,VWS V14.01,2013-01-19 08:28:00,
2013-01-19 02:33:00,37.6,29.9,29.91,SSW,195,1.8,5.4,73,0.00,,---,0.00,VWS V14.01,2013-01-19 08:33:00,
2013-01-19 02:38:00,37.7,30.0,29.92,WSW,252,0.0,5.4,73,0.00,,---,0.00,VWS V14.01,2013-01-19 08:38:00,
2013-01-19 02:43:00,37.7,30.3,29.92,WSW,257,1.8,5.4,74,0.00,,---,0.00,VWS V14.01,2013-01-19 08:43:00,
2013-01-19 02:48:00,37.8,30.1,29.92,SW,228,7.2,12.6,73,0.00,,---,0.00,VWS V14.01,2013-01-19 08:48:00,
2013-01-19 02:53:00,37.8,30.1,29.91,West,277,1.8,7.2,73,0.00,,---,0.00,VWS V14.01,2013-01-19 08:53:00,
2013-01-19 02:58:00,37.9,30.2,29.91,SW,219,3.6,7.2,73,0.00,,---,0.00,VWS V14.01,2013-01-19 08:58:00,
2013-01-19 03:03:00,37.9,30.2,29.91,SW,217,1.8,10.8,73,0.00,,---,0.00,VWS V14.01,2013-01-19 09:03:00,
2013-01-19 03:08:00,37.8,30.1,29.91,SSW,201,0.0,7.2,73,0.00,,---,0.00,VWS V14.01,2013-01-19 09:08:00,
2013-01-19 03:13:00,37.8,30.1,29.91,West,281,3.6,3.6,73,0.00,,---,0.00,VWS V14.01,2013-01-19 09:13:00,
2013-01-19 03:18:00,37.8,30.1,29.91,SSW,203,0.0,1.8,73,0.00,,---,0.00,VWS V14.01,2013-01-19 09:18:00,
2013-01-19 03:23:00,37.8,30.1,29.90,SSW,193,0.0,5.4,73,0.00,,---,0.00,VWS V14.01,2013-01-19 09:23:00,
2013-01-19 03:28:00,37.8,30.1,29.90,SW,233,3.6,3.6,73,0.00,,---,0.00,VWS V14.01,2013-01-19 09:28:00,
2013-01-19 03:33:00,37.7,30.3,29.90,SW,231,3.6,12.6,74,0.00,,---,0.00,VWS V14.01,2013-01-19 09:33:00,
2013-01-19 03:38:00,37.8,30.4,29.90,SSW,208,0.0,3.6,74,0.00,,---,0.00,VWS V14.01,2013-01-19 09:38:00,
2013-01-19 03:43:00,37.8,30.4,29.90,SE,139,1.8,5.4,74,0.00,,---,0.00,VWS V14.01,2013-01-19 09:43:00,
2013-01-19 03:48:00,37.9,30.2,29.89,SSW,203,0.0,12.6,73,0.00,,---,0.00,VWS V14.01,2013-01-19 09:48:00,
2013-01-19 03:53:00,37.9,30.2,29.89,SSW,195,1.8,9.0,73,0.00,,---,0.00,VWS V14.01,2013-01-19 09:53:00,
2013-01-19 03:58:00,37.8,30.1,29.89,South,181,10.8,10.8,73,0.00,,---,0.00,VWS V14.01,2013-01-19 09:58:00,
2013-01-19 04:03:00,37.7,30.0,29.89,SW,228,3.6,7.2,73,0.00,,---,0.00,VWS V14.01,2013-01-19 10:03:00,
2013-01-19 04:08:00,37.6,30.2,29.89,West,263,1.8,9.0,74,0.00,,---,0.00,VWS V14.01,2013-01-19 10:08:00,
2013-01-19 04:13:00,37.5,30.1,29.89,SSW,204,9.0,9.0,74,0.00,,---,0.00,VWS V14.01,2013-01-19 10:13:00,
2013-01-19 04:18:00,37.3,29.9,29.89,SSW,204,0.0,3.6,74,0.00,,---,0.00,VWS V14.01,2013-01-19 10:18:00,
2013-01-19 04:23:00,37.1,29.7,29.89,South,190,3.6,7.2,74,0.00,,---,0.00,VWS V14.01,2013-01-19 10:23:00,
2013-01-19 04:28:00,37.1,30.0,29.89,South,191,3.6,9.0,75,0.00,,---,0.00,VWS V14.01,2013-01-19 10:28:00,
2013-01-19 04:33:00,37.0,29.9,29.88,SSW,211,0.0,5.4,75,0.00,,---,0.00,VWS V14.01,2013-01-19 10:33:00,
2013-01-19 04:38:00,36.9,29.8,29.89,WSW,248,1.8,5.4,75,0.00,,---,0.00,VWS V14.01,2013-01-19 10:38:00,
2013-01-19 04:43:00,36.8,29.7,29.88,SW,221,1.8,5.4,75,0.00,,---,0.00,VWS V14.01,2013-01-19 10:43:00,
2013-01-19 04:48:00,36.8,29.7,29.88,South,174,0.0,5.4,75,0.00,,---,0.00,VWS V14.01,2013-01-19 10:48:00,
2013-01-19 04:53:00,36.8,29.7,29.88,SW,217,1.8,7.2,75,0.00,,---,0.00,VWS V14.01,2013-01-19 10:53:00,
2013-01-19 04:58:00,36.7,29.6,29.88,WSW,238,7.2,7.2,75,0.00,,---,0.00,VWS V14.01,2013-01-19 10:58:00,
2013-01-19 05:03:00,36.7,29.6,29.87,WSW,240,3.6,7.2,75,0.00,,---,0.00,VWS V14.01,2013-01-19 11:03:00,
2013-01-19 05:08:00,36.7,29.6,29.87,South,180,9.0,9.0,75,0.00,,---,0.00,VWS V14.01,2013-01-19 11:08:00,
2013-01-19 05:13:00,36.8,29.7,29.87,SSW,211,1.8,5.4,75,0.00,,---,0.00,VWS V14.01,2013-01-19 11:13:00,
2013-01-19 06:48:00,36.9,29.8,29.85,NE,46,0.0,9.0,75,0.00,,---,0.00,VWS V14.01,2013-01-19 12:48:00,
2013-01-19 06:53:00,36.9,29.8,29.85,South,187,9.0,10.8,75,0.00,,---,0.00,VWS V14.01,2013-01-19 12:53:00,
2013-01-19 06:58:00,37.0,29.9,29.85,SE,143,5.4,9.0,75,0.00,,---,0.00,VWS V14.01,2013-01-19 12:58:00,
2013-01-19 07:03:00,37.1,30.0,29.85,SSW,211,3.6,16.2,75,0.00,,---,0.00,VWS V14.01,2013-01-19 13:03:00,
2013-01-19 07:08:00,37.1,30.0,29.85,WNW,297,1.8,14.4,75,0.00,,---,0.00,VWS V14.01,2013-01-19 13:08:00,
2013-01-19 07:13:00,37.1,30.0,29.85,SW,236,3.6,7.2,75,0.00,,---,0.00,VWS V14.01,2013-01-19 13:13:00,
2013-01-19 07:18:00,37.2,30.1,29.85,South,178,3.6,10.8,75,0.00,,---,0.00,VWS V14.01,2013-01-19 13:18:00,
2013-01-19 07:23:00,37.2,30.1,29.85,WSW,241,3.6,7.2,75,0.00,,---,0.00,VWS V14.01,2013-01-19 13:23:00,
2013-01-19 07:28:00,37.3,30.2,29.85,WNW,284,0.0,5.4,75,0.00,,---,0.00,VWS V14.01,2013-01-19 13:28:00,
2013-01-19 07:33:00,37.3,30.2,29.85,West,280,1.8,14.4,75,0.00,,---,0.00,VWS V14.01,2013-01-19 13:33:00,
2013-01-19 07:38:00,37.3,30.2,29.85,SW,226,0.0,9.0,75,0.00,,---,0.00,VWS V14.01,2013-01-19 13:38:00,
2013-01-19 07:43:00,37.3,30.2,29.85,SSW,207,7.2,12.6,75,0.00,,---,0.00,VWS V14.01,2013-01-19 13:43:00,
2013-01-19 07:48:00,37.4,30.3,29.85,SSW,208,3.6,7.2,75,0.00,,---,0.00,VWS V14.01,2013-01-19 13:48:00,
2013-01-19 07:53:00,37.4,30.3,29.85,SW,225,5.4,7.2,75,0.00,,---,0.00,VWS V14.01,2013-01-19 13:53:00,
2013-01-19 07:58:00,37.4,30.3,29.85,SSW,207,1.8,7.2,75,0.00,,---,0.00,VWS V14.01,2013-01-19 13:58:00,
2013-01-19 08:03:00,37.4,30.3,29.85,SSE,156,3.6,5.4,75,0.00,,---,0.00,VWS V14.01,2013-01-19 14:03:00,
2013-01-19 08:08:00,37.5,30.4,29.85,West,260,1.8,9.0,75,0.00,,---,0.00,VWS V14.01,2013-01-19 14:08:00,
2013-01-19 08:13:00,37.6,30.5,29.85,SSW,198,1.8,7.2,75,0.00,,---,0.00,VWS V14.01,2013-01-19 14:13:00,
2013-01-19 08:18:00,37.7,30.6,29.85,West,264,1.8,7.2,75,0.00,,---,0.00,VWS V14.01,2013-01-19 14:18:00,
2013-01-19 08:23:00,37.8,30.7,29.85,SSW,207,0.0,3.6,75,0.00,,---,0.00,VWS V14.01,2013-01-19 14:23:00,
2013-01-19 08:28:00,37.9,30.8,29.85,SSE,163,0.0,5.4,75,0.00,,---,0.00,VWS V14.01,2013-01-19 14:28:00,
2013-01-19 08:33:00,38.0,30.9,29.85,WNW,288,1.8,3.6,75,0.00,,---,0.00,VWS V14.01,2013-01-19 14:33:00,
2013-01-19 08:38:00,38.0,30.9,29.85,SSW,205,0.0,9.0,75,0.00,,---,0.00,VWS V14.01,2013-01-19 14:38:00,
2013-01-19 08:43:00,38.1,31.0,29.85,SSW,197,1.8,5.4,75,0.00,,---,0.00,VWS V14.01,2013-01-19 14:43:00,
2013-01-19 08:48:00,38.4,31.3,29.85,SE,129,1.8,7.2,75,0.00,,---,0.00,VWS V14.01,2013-01-19 14:48:00,
2013-01-19 08:53:00,38.8,31.4,29.85,West,281,3.6,16.2,74,0.00,,---,0.00,VWS V14.01,2013-01-19 14:53:00,
2013-01-19 08:58:00,39.1,31.4,29.85,SSW,200,3.6,5.4,73,0.00,,---,0.00,VWS V14.01,2013-01-19 14:58:00,
2013-01-19 09:03:00,39.4,31.6,29.85,NW,306,3.6,9.0,73,0.00,,---,0.00,VWS V14.01,2013-01-19 15:03:00,
2013-01-19 09:08:00,39.6,31.8,29.85,West,273,1.8,14.4,73,0.00,,---,0.00,VWS V14.01,2013-01-19 15:08:00,
2013-01-19 09:13:00,39.8,31.7,29.85,West,271,3.6,9.0,73,0.00,,---,0.00,VWS V14.01,2013-01-19 15:13:00,
2013-01-19 09:18:00,39.9,31.8,29.85,WSW,244,5.4,9.0,73,0.00,,---,0.00,VWS V14.01,2013-01-19 15:18:00,
2013-01-19 09:23:00,40.1,32.0,29.85,SSE,156,10.8,16.2,73,0.00,,---,0.00,VWS V14.01,2013-01-19 15:23:00,
2013-01-19 09:28:00,40.3,32.2,29.85,WSW,246,3.6,9.0,73,0.00,,---,0.00,VWS V14.01,2013-01-19 15:28:00,
2013-01-19 09:33:00,40.5,32.1,29.85,WSW,253,3.6,9.0,72,0.00,,---,0.00,VWS V14.01,2013-01-19 15:33:00,
2013-01-19 09:38:00,40.7,32.3,29.85,WNW,291,7.2,9.0,72,0.00,,---,0.00,VWS V14.01,2013-01-19 15:38:00,
2013-01-19 09:43:00,41.2,32.7,29.85,SSW,205,7.2,9.0,72,0.00,,---,0.00,VWS V14.01,2013-01-19 15:43:00,
2013-01-19 09:48:00,41.9,33.1,29.85,South,190,1.8,7.2,71,0.00,,---,0.00,VWS V14.01,2013-01-19 15:48:00,
2013-01-19 09:53:00,42.5,33.3,29.85,WSW,246,3.6,7.2,70,0.00,,---,0.00,VWS V14.01,2013-01-19 15:53:00,
2013-01-19 09:58:00,42.9,33.4,29.84,SSW,212,0.0,12.6,69,0.00,,---,0.00,VWS V14.01,2013-01-19 15:58:00,
2013-01-19 10:03:00,43.3,33.4,29.84,WSW,248,7.2,9.0,68,0.00,,---,0.00,VWS V14.01,2013-01-19 16:03:00,
2013-01-19 10:08:00,43.2,33.3,29.84,ESE,108,3.6,10.8,68,0.00,,---,0.00,VWS V14.01,2013-01-19 16:08:00,
2013-01-19 10:13:00,43.2,33.3,29.83,West,276,9.0,12.6,68,0.00,,---,0.00,VWS V14.01,2013-01-19 16:13:00,
2013-01-19 10:18:00,43.3,33.4,29.83,West,281,5.4,9.0,68,0.00,,---,0.00,VWS V14.01,2013-01-19 16:18:00,
2013-01-19 10:23:00,43.3,33.4,29.83,West,281,7.2,12.6,68,0.00,,---,0.00,VWS V14.01,2013-01-19 16:23:00,
2013-01-19 10:28:00,43.5,33.6,29.84,SSW,198,3.6,5.4,68,0.00,,---,0.00,VWS V14.01,2013-01-19 16:28:00,
2013-01-19 10:33:00,43.6,33.7,29.84,West,281,3.6,14.4,68,0.00,,---,0.00,VWS V14.01,2013-01-19 16:33:00,
2013-01-19 10:38:00,43.7,33.8,29.84,West,267,7.2,16.2,68,0.00,,---,0.00,VWS V14.01,2013-01-19 16:38:00,
2013-01-19 10:43:00,43.8,33.6,29.84,WSW,250,3.6,9.0,67,0.00,,---,0.00,VWS V14.01,2013-01-19 16:43:00,
2013-01-19 10:48:00,44.0,33.8,29.84,WSW,248,9.0,9.0,67,0.00,,---,0.00,VWS V14.01,2013-01-19 16:48:00,
2013-01-19 10:53:00,44.1,33.8,29.83,SW,229,0.0,10.8,67,0.00,,---,0.00,VWS V14.01,2013-01-19 16:53:00,
2013-01-19 10:58:00,44.1,33.8,29.83,WSW,253,3.6,10.8,67,0.00,,---,0.00,VWS V14.01,2013-01-19 16:58:00,
2013-01-19 11:03:00,44.3,34.0,29.83,West,262,1.8,14.4,67,0.00,,---,0.00,VWS V14.01,2013-01-19 17:03:00,
2013-01-19 11:08:00,44.3,34.0,29.82,West,267,1.8,9.0,67,0.00,,---,0.00,VWS V14.01,2013-01-19 17:08:00,
2013-01-19 11:13:00,44.5,33.9,29.82,WSW,252,3.6,12.6,66,0.00,,---,0.00,VWS V14.01,2013-01-19 17:13:00,
2013-01-19 11:18:00,44.5,33.9,29.82,West,276,3.6,9.0,66,0.00,,---,0.00,VWS V14.01,2013-01-19 17:18:00,
2013-01-19 11:23:00,44.6,34.0,29.82,SW,236,7.2,12.6,66,0.00,,---,0.00,VWS V14.01,2013-01-19 17:23:00,
2013-01-19 11:28:00,44.7,34.1,29.81,West,269,1.8,12.6,66,0.00,,---,0.00,VWS V14.01,2013-01-19 17:28:00,
2013-01-19 11:33:00,44.6,34.0,29.80,WSW,243,3.6,14.4,66,0.00,,---,0.00,VWS V14.01,2013-01-19 17:33:00,
2013-01-19 11:38:00,44.7,34.1,29.80,WSW,249,3.6,12.6,66,0.00,,---,0.00,VWS V14.01,2013-01-19 17:38:00,
2013-01-19 11:43:00,44.7,34.1,29.80,West,259,3.6,9.0,66,0.00,,---,0.00,VWS V14.01,2013-01-19 17:43:00,
2013-01-19 11:48:00,44.8,33.8,29.80,WSW,239,3.6,10.8,65,0.00,,---,0.00,VWS V14.01,2013-01-19 17:48:00,
2013-01-19 11:53:00,45.0,34.0,29.79,WSW,253,5.4,14.4,65,0.00,,---,0.00,VWS V14.01,2013-01-19 17:53:00,
2013-01-19 11:59:00,45.0,34.0,29.79,West,280,3.6,10.8,65,0.00,,---,0.00,VWS V14.01,2013-01-19 17:59:00,
2013-01-19 12:03:00,44.9,33.9,29.78,SE,127,5.4,12.6,65,0.00,,---,0.00,VWS V14.01,2013-01-19 18:03:00,
2013-01-19 12:09:00,44.9,34.3,29.78,West,263,1.8,10.8,66,0.00,,---,0.00,VWS V14.01,2013-01-19 18:09:00,
2013-01-19 12:14:00,45.0,34.0,29.78,West,260,5.4,7.2,65,0.00,,---,0.00,VWS V14.01,2013-01-19 18:14:00,
2013-01-19 12:19:00,45.0,34.0,29.78,WSW,238,5.4,10.8,65,0.00,,---,0.00,VWS V14.01,2013-01-19 18:19:00,
2013-01-19 12:24:00,44.9,33.9,29.78,West,276,3.6,16.2,65,0.00,,---,0.00,VWS V14.01,2013-01-19 18:24:00,
2013-01-19 12:29:00,44.9,33.9,29.78,West,274,1.8,16.2,65,0.00,,---,0.00,VWS V14.01,2013-01-19 18:29:00,
2013-01-19 12:34:00,45.3,33.9,29.77,SW,215,14.4,19.8,64,0.00,,---,0.00,VWS V14.01,2013-01-19 18:34:00,
2013-01-19 12:39:00,46.2,34.4,29.77,WSW,240,5.4,14.4,63,0.00,,---,0.00,VWS V14.01,2013-01-19 18:39:00,
2013-01-19 12:45:00,46.6,34.4,29.77,WSW,243,5.4,16.2,62,0.00,,---,0.00,VWS V14.01,2013-01-19 18:45:00,
2013-01-19 12:50:00,46.4,34.2,29.77,WSW,239,9.0,16.2,62,0.00,,---,0.00,VWS V14.01,2013-01-19 18:50:00,
2013-01-19 12:55:00,46.4,34.2,29.78,WSW,248,7.2,14.4,62,0.00,,---,0.00,VWS V14.01,2013-01-19 18:55:00,
2013-01-19 13:00:00,46.8,34.6,29.78,SW,224,10.8,14.4,62,0.00,,---,0.00,VWS V14.01,2013-01-19 19:00:00,
2013-01-19 13:05:00,47.1,34.5,29.77,WSW,254,7.2,19.8,61,0.00,,---,0.00,VWS V14.01,2013-01-19 19:05:00,
2013-01-19 13:10:00,47.5,34.9,29.77,WNW,300,5.4,12.6,61,0.00,,---,0.00,VWS V14.01,2013-01-19 19:10:00,
2013-01-19 13:15:00,48.0,35.0,29.77,SSW,212,5.4,12.6,60,0.00,,---,0.00,VWS V14.01,2013-01-19 19:15:00,
2013-01-19 13:20:00,48.3,34.9,29.77,West,260,7.2,14.4,60,0.00,,---,0.00,VWS V14.01,2013-01-19 19:20:00,
2013-01-19 13:25:00,48.5,34.7,29.77,WNW,288,5.4,10.8,59,0.00,,---,0.00,VWS V14.01,2013-01-19 19:25:00,
2013-01-19 13:30:00,48.6,34.8,29.76,SW,218,7.2,14.4,59,0.00,,---,0.00,VWS V14.01,2013-01-19 19:30:00,
2013-01-19 13:35:00,49.1,35.2,29.76,SW,221,3.6,10.8,59,0.00,,---,0.00,VWS V14.01,2013-01-19 19:35:00,
2013-01-19 13:40:00,49.4,35.1,29.76,SSW,210,5.4,10.8,58,0.00,,---,0.00,VWS V14.01,2013-01-19 19:40:00,
2013-01-19 13:45:00,49.6,35.3,29.77,WSW,251,7.2,12.6,58,0.00,,---,0.00,VWS V14.01,2013-01-19 19:45:00,
2013-01-19 13:51:00,49.8,35.5,29.76,WSW,256,3.6,9.0,58,0.00,,---,0.00,VWS V14.01,2013-01-19 19:51:00,
2013-01-19 13:56:00,49.8,35.1,29.76,WNW,285,1.8,9.0,57,0.00,,---,0.00,VWS V14.01,2013-01-19 19:56:00,
2013-01-19 14:01:00,49.8,34.7,29.76,SW,214,7.2,10.8,56,0.00,,---,0.00,VWS V14.01,2013-01-19 20:01:00,
2013-01-19 14:06:00,49.8,34.7,29.76,West,259,3.6,10.8,56,0.00,,---,0.00,VWS V14.01,2013-01-19 20:06:00,
2013-01-19 14:12:00,49.9,34.8,29.76,SW,236,10.8,10.8,56,0.00,,---,0.00,VWS V14.01,2013-01-19 20:12:00,
2013-01-19 14:17:00,50.2,35.0,29.76,WSW,243,9.0,10.8,56,0.00,,---,0.00,VWS V14.01,2013-01-19 20:17:00,
2013-01-19 14:22:00,50.1,34.5,29.76,NW,323,9.0,9.0,55,0.00,,---,0.00,VWS V14.01,2013-01-19 20:22:00,
2013-01-19 14:27:00,50.2,35.0,29.76,West,262,5.4,10.8,56,0.00,,---,0.00,VWS V14.01,2013-01-19 20:27:00,
2013-01-19 14:32:00,50.3,34.7,29.76,SW,228,5.4,7.2,55,0.00,,---,0.00,VWS V14.01,2013-01-19 20:32:00,
2013-01-19 14:37:00,50.4,34.8,29.76,West,269,1.8,9.0,55,0.00,,---,0.00,VWS V14.01,2013-01-19 20:37:00,
2013-01-19 14:42:00,50.6,35.4,29.76,WSW,240,1.8,3.6,56,0.00,,---,0.00,VWS V14.01,2013-01-19 20:42:00,
2013-01-19 14:47:00,50.8,35.2,29.76,WSW,255,5.4,12.6,55,0.00,,---,0.00,VWS V14.01,2013-01-19 20:47:00,
2013-01-19 14:52:00,50.5,34.9,29.76,WNW,291,9.0,12.6,55,0.00,,---,0.00,VWS V14.01,2013-01-19 20:52:00,
2013-01-19 14:57:00,50.4,34.8,29.76,NW,311,3.6,9.0,55,0.00,,---,0.00,VWS V14.01,2013-01-19 20:57:00,
2013-01-19 15:02:00,50.4,34.4,29.76,WNW,293,3.6,14.4,54,0.00,,---,0.00,VWS V14.01,2013-01-19 21:02:00,
2013-01-19 15:07:00,50.2,34.6,29.77,WNW,293,5.4,12.6,55,0.00,,---,0.00,VWS V14.01,2013-01-19 21:07:00,
2013-01-19 15:12:00,49.9,34.8,29.77,NW,316,7.2,12.6,56,0.00,,---,0.00,VWS V14.01,2013-01-19 21:12:00,
2013-01-19 15:17:00,49.8,34.7,29.77,SW,232,9.0,14.4,56,0.00,,---,0.00,VWS V14.01,2013-01-19 21:17:00,
2013-01-19 15:22:00,49.9,35.2,29.77,West,269,7.2,14.4,57,0.00,,---,0.00,VWS V14.01,2013-01-19 21:22:00,
2013-01-19 15:27:00,49.9,35.2,29.78,SW,219,5.4,10.8,57,0.00,,---,0.00,VWS V14.01,2013-01-19 21:27:00,
2013-01-19 15:32:00,49.8,35.1,29.78,NW,313,5.4,19.8,57,0.00,,---,0.00,VWS V14.01,2013-01-19 21:32:00,
2013-01-19 15:37:00,49.7,35.0,29.78,West,276,3.6,10.8,57,0.00,,---,0.00,VWS V14.01,2013-01-19 21:37:00,
2013-01-19 15:42:00,49.6,35.3,29.78,West,264,1.8,9.0,58,0.00,,---,0.00,VWS V14.01,2013-01-19 21:42:00,
2013-01-19 15:47:00,49.5,35.2,29.78,West,272,10.8,10.8,58,0.00,,---,0.00,VWS V14.01,2013-01-19 21:47:00,
2013-01-19 15:53:00,49.5,34.8,29.78,WSW,249,10.8,14.4,57,0.00,,---,0.00,VWS V14.01,2013-01-19 21:53:00,
2013-01-19 15:58:00,49.4,34.7,29.78,WSW,246,3.6,10.8,57,0.00,,---,0.00,VWS V14.01,2013-01-19 21:58:00,
2013-01-19 16:03:00,49.0,34.7,29.79,West,269,9.0,19.8,58,0.00,,---,0.00,VWS V14.01,2013-01-19 22:03:00,
2013-01-19 16:08:00,48.7,34.8,29.79,SW,217,3.6,5.4,59,0.00,,---,0.00,VWS V14.01,2013-01-19 22:08:00,
2013-01-19 16:13:00,48.3,34.9,29.79,WNW,302,5.4,10.8,60,0.00,,---,0.00,VWS V14.01,2013-01-19 22:13:00,
2013-01-19 16:18:00,48.1,34.7,29.79,West,276,1.8,10.8,60,0.00,,---,0.00,VWS V14.01,2013-01-19 22:18:00,
2013-01-19 16:23:00,47.8,34.8,29.79,West,263,1.8,9.0,60,0.00,,---,0.00,VWS V14.01,2013-01-19 22:23:00,
2013-01-19 16:28:00,47.4,34.8,29.79,West,264,3.6,9.0,61,0.00,,---,0.00,VWS V14.01,2013-01-19 22:28:00,
2013-01-19 16:33:00,47.0,33.7,29.80,WSW,246,5.4,10.8,60,0.00,,---,0.00,VWS V14.01,2013-01-19 22:33:00,
2013-01-19 16:38:00,47.0,34.0,29.80,South,191,0.0,10.8,60,0.00,,---,0.00,VWS V14.01,2013-01-19 22:38:00,
2013-01-19 16:44:00,46.5,34.0,29.80,WNW,300,3.6,7.2,61,0.00,,---,0.00,VWS V14.01,2013-01-19 22:44:00,
2013-01-19 16:49:00,46.0,33.8,29.81,WSW,255,1.8,5.4,62,0.00,,---,0.00,VWS V14.01,2013-01-19 22:49:00,
2013-01-19 16:54:00,45.6,33.5,29.81,SW,226,7.2,7.2,62,0.00,,---,0.00,VWS V14.01,2013-01-19 22:54:00,
2013-01-19 16:59:00,45.2,33.1,29.81,West,280,3.6,9.0,62,0.00,,---,0.00,VWS V14.01,2013-01-19 22:59:00,
2013-01-19 17:04:00,44.7,33.0,29.82,NW,311,1.8,5.4,63,0.00,,---,0.00,VWS V14.01,2013-01-19 23:04:00,
2013-01-19 17:09:00,44.2,33.2,29.82,WNW,303,3.6,7.2,65,0.00,,---,0.00,VWS V14.01,2013-01-19 23:09:00,
2013-01-19 17:14:00,43.9,33.0,29.82,WNW,299,1.8,5.4,65,0.00,,---,0.00,VWS V14.01,2013-01-19 23:14:00,
2013-01-19 17:19:00,43.6,33.0,29.82,WNW,293,3.6,3.6,66,0.00,,---,0.00,VWS V14.01,2013-01-19 23:19:00,
2013-01-19 17:24:00,43.3,32.7,29.82,West,271,3.6,3.6,66,0.00,,---,0.00,VWS V14.01,2013-01-19 23:24:00,
2013-01-19 17:29:00,43.1,32.9,29.83,SW,226,3.6,10.8,67,0.00,,---,0.00,VWS V14.01,2013-01-19 23:29:00,
2013-01-19 17:34:00,43.4,32.8,29.83,WNW,297,3.6,7.2,66,0.00,,---,0.00,VWS V14.01,2013-01-19 23:34:00,
2013-01-19 17:39:00,43.2,32.6,29.83,NW,307,3.6,7.2,66,0.00,,---,0.00,VWS V14.01,2013-01-19 23:39:00,
2013-01-19 17:44:00,43.0,32.5,29.84,WSW,248,1.8,5.4,66,0.00,,---,0.00,VWS V14.01,2013-01-19 23:44:00,
2013-01-19 17:49:00,42.8,32.6,29.84,WSW,240,3.6,7.2,67,0.00,,---,0.00,VWS V14.01,2013-01-19 23:49:00,
2013-01-19 17:54:00,42.8,32.6,29.84,WNW,299,5.4,10.8,67,0.00,,---,0.00,VWS V14.01,2013-01-19 23:54:00,
2013-01-19 17:59:00,42.7,32.5,29.84,WNW,294,3.6,9.0,67,0.00,,---,0.00,VWS V14.01,2013-01-19 23:59:00,
2013-01-19 18:04:00,42.7,32.5,29.85,WNW,291,1.8,9.0,67,0.00,,---,0.00,VWS V14.01,2013-01-20 00:04:00,
2013-01-19 18:10:00,42.7,32.5,29.85,WSW,256,1.8,9.0,67,0.00,,---,0.00,VWS V14.01,2013-01-20 00:10:00,
2013-01-19 18:15:00,42.7,32.5,29.85,West,278,3.6,10.8,67,0.00,,---,0.00,VWS V14.01,2013-01-20 00:15:00,
2013-01-19 18:20:00,42.8,32.6,29.85,SW,222,1.8,10.8,67,0.00,,---,0.00,VWS V14.01,2013-01-20 00:20:00,
2013-01-19 18:25:00,42.6,32.4,29.85,WNW,294,1.8,10.8,67,0.00,,---,0.00,VWS V14.01,2013-01-20 00:25:00,
2013-01-19 18:30:00,42.4,32.6,29.85,WNW,299,3.6,7.2,68,0.00,,---,0.00,VWS V14.01,2013-01-20 00:30:00,
2013-01-19 18:35:00,42.2,32.4,29.86,WNW,290,1.8,7.2,68,0.00,,---,0.00,VWS V14.01,2013-01-20 00:35:00,
2013-01-19 18:40:00,41.9,32.4,29.86,West,273,1.8,9.0,69,0.00,,---,0.00,VWS V14.01,2013-01-20 00:40:00,
2013-01-19 18:45:00,41.7,32.2,29.86,NW,319,5.4,10.8,69,0.00,,---,0.00,VWS V14.01,2013-01-20 00:45:00,
2013-01-19 18:50:00,41.7,31.9,29.87,WNW,287,3.6,10.8,68,0.00,,---,0.00,VWS V14.01,2013-01-20 00:50:00,
2013-01-19 18:55:00,41.5,32.0,29.87,NW,306,3.6,9.0,69,0.00,,---,0.00,VWS V14.01,2013-01-20 00:55:00,
2013-01-19 19:01:00,41.0,31.9,29.87,WNW,297,1.8,3.6,70,0.00,,---,0.00,VWS V14.01,2013-01-20 01:01:00,
2013-01-19 19:06:00,40.5,31.7,29.87,WNW,289,1.8,3.6,71,0.00,,---,0.00,VWS V14.01,2013-01-20 01:06:00,
2013-01-19 19:11:00,40.1,31.7,29.88,West,276,1.8,1.8,72,0.00,,---,0.00,VWS V14.01,2013-01-20 01:11:00,
2013-01-19 19:16:00,39.8,31.4,29.88,WNW,293,1.8,3.6,72,0.00,,---,0.00,VWS V14.01,2013-01-20 01:16:00,
2013-01-19 19:21:00,39.7,31.6,29.89,West,271,3.6,7.2,73,0.00,,---,0.00,VWS V14.01,2013-01-20 01:21:00,
2013-01-19 19:26:00,40.1,31.7,29.89,WNW,299,7.2,10.8,72,0.00,,---,0.00,VWS V14.01,2013-01-20 01:26:00,
2013-01-19 19:31:00,40.2,31.5,29.89,WNW,296,9.0,10.8,71,0.00,,---,0.00,VWS V14.01,2013-01-20 01:31:00,
2013-01-19 19:36:00,40.3,31.2,29.89,NW,315,7.2,12.6,70,0.00,,---,0.00,VWS V14.01,2013-01-20 01:36:00,
2013-01-19 19:42:00,40.4,31.3,29.89,West,260,7.2,10.8,70,0.00,,---,0.00,VWS V14.01,2013-01-20 01:42:00,
2013-01-19 19:48:00,40.4,31.3,29.89,SW,233,9.0,10.8,70,0.00,,---,0.00,VWS V14.01,2013-01-20 01:48:00,
2013-01-19 19:53:00,39.9,30.8,29.89,NW,304,12.6,14.4,70,0.00,,---,0.00,VWS V14.01,2013-01-20 01:53:00,
2013-01-19 19:58:00,39.8,30.7,29.89,NW,310,7.2,10.8,70,0.00,,---,0.00,VWS V14.01,2013-01-20 01:58:00,
2013-01-19 20:03:00,39.9,30.5,29.90,WSW,249,10.8,19.8,69,0.00,,---,0.00,VWS V14.01,2013-01-20 02:03:00,
2013-01-19 20:08:00,40.1,30.4,29.90,WNW,283,12.6,14.4,68,0.00,,---,0.00,VWS V14.01,2013-01-20 02:08:00,
2013-01-19 20:13:00,40.3,30.2,29.90,WNW,291,5.4,19.8,67,0.00,,---,0.00,VWS V14.01,2013-01-20 02:13:00,
2013-01-19 20:18:00,40.4,30.0,29.91,WNW,299,18.0,25.2,66,0.00,,---,0.00,VWS V14.01,2013-01-20 02:18:00,
2013-01-19 20:23:00,40.3,29.5,29.91,WNW,289,18.0,19.8,65,0.00,,---,0.00,VWS V14.01,2013-01-20 02:23:00,
2013-01-19 20:28:00,40.1,29.3,29.91,NNE,25,21.6,21.6,65,0.00,,---,0.00,VWS V14.01,2013-01-20 02:28:00,
2013-01-19 20:34:00,39.7,29.0,29.92,WNW,299,7.2,18.0,65,0.00,,---,0.00,VWS V14.01,2013-01-20 02:34:00,
2013-01-19 20:39:00,39.3,28.6,29.92,NW,311,9.0,18.0,65,0.00,,---,0.00,VWS V14.01,2013-01-20 02:39:00,
2013-01-19 20:44:00,39.1,28.4,29.92,WNW,302,7.2,18.0,65,0.00,,---,0.00,VWS V14.01,2013-01-20 02:44:00,
2013-01-19 20:49:00,38.8,27.0,29.93,NW,314,10.8,28.8,62,0.00,,---,0.00,VWS V14.01,2013-01-20 02:49:00,
2013-01-19 20:54:00,37.5,24.3,29.94,SW,232,10.8,25.2,59,0.00,,---,0.00,VWS V14.01,2013-01-20 02:54:00,
2013-01-19 20:59:00,36.2,22.7,29.94,NW,311,19.8,34.2,58,0.00,,---,0.00,VWS V14.01,2013-01-20 02:59:00,
2013-01-19 21:04:00,35.4,22.4,29.94,WNW,287,9.0,27.0,59,0.00,,---,0.00,VWS V14.01,2013-01-20 03:04:00,
2013-01-19 21:09:00,34.4,21.0,29.95,WNW,299,19.8,34.2,58,0.00,,---,0.00,VWS V14.01,2013-01-20 03:09:00,
2013-01-19 21:14:00,33.3,19.6,29.96,West,264,9.0,37.8,57,0.00,,---,0.00,VWS V14.01,2013-01-20 03:14:00,
2013-01-19 21:19:00,32.6,19.3,29.97,NNW,334,14.4,34.2,58,0.00,,---,0.00,VWS V14.01,2013-01-20 03:19:00,
2013-01-19 21:24:00,31.7,19.2,29.96,NW,323,10.8,27.0,60,0.00,,---,0.00,VWS V14.01,2013-01-20 03:24:00,
2013-01-19 21:29:00,30.8,18.7,29.98,NW,321,23.4,27.0,60,0.00,,---,0.00,VWS V14.01,2013-01-20 03:29:00,
2013-01-19 21:34:00,30.2,18.5,29.98,WNW,302,19.8,23.4,61,0.00,,---,0.00,VWS V14.01,2013-01-20 03:34:00,
2013-01-19 21:39:00,29.9,18.2,29.98,WSW,250,19.8,28.8,61,0.00,,---,0.00,VWS V14.01,2013-01-20 03:39:00,
2013-01-19 21:44:00,29.6,17.6,29.99,NW,312,14.4,36.0,60,0.00,,---,0.00,VWS V14.01,2013-01-20 03:44:00,
2013-01-19 21:49:00,29.2,16.1,29.99,West,271,16.2,34.2,58,0.00,,---,0.00,VWS V14.01,2013-01-20 03:49:00,
2013-01-19 21:54:00,28.8,14.6,30.00,WNW,295,14.4,30.6,55,0.00,,---,0.00,VWS V14.01,2013-01-20 03:54:00,
2013-01-19 21:59:00,28.4,12.2,30.00,WNW,287,9.0,27.0,50,0.00,,---,0.00,VWS V14.01,2013-01-20 03:59:00,
2013-01-19 22:04:00,28.0,12.3,30.01,West,271,12.6,27.0,51,0.00,,---,0.00,VWS V14.01,2013-01-20 04:04:00,
2013-01-19 22:09:00,27.7,12.8,30.01,NNW,342,28.8,28.8,53,0.00,,---,0.00,VWS V14.01,2013-01-20 04:09:00,
2013-01-19 22:14:00,27.3,12.8,30.02,NNE,14,19.8,28.8,54,0.00,,---,0.00,VWS V14.01,2013-01-20 04:14:00,
2013-01-19 22:19:00,27.1,12.3,30.02,WNW,299,21.6,32.4,53,0.00,,---,0.00,VWS V14.01,2013-01-20 04:19:00,
2013-01-19 22:24:00,26.8,13.5,30.02,NW,317,7.2,25.2,57,0.00,,---,0.00,VWS V14.01,2013-01-20 04:24:00,
2013-01-19 22:29:00,26.4,13.1,30.03,WNW,302,10.8,34.2,57,0.00,,---,0.00,VWS V14.01,2013-01-20 04:29:00,
2013-01-19 22:34:00,26.1,13.2,30.03,West,276,9.0,27.0,58,0.00,,---,0.00,VWS V14.01,2013-01-20 04:34:00,
2013-01-19 22:39:00,25.8,13.7,30.03,WNW,301,16.2,32.4,60,0.00,,---,0.00,VWS V14.01,2013-01-20 04:39:00,
2013-01-19 22:45:00,25.6,13.8,30.04,NW,309,12.6,23.4,60,0.00,,---,0.00,VWS V14.01,2013-01-20 04:45:00,
2013-01-19 22:50:00,25.3,14.2,30.05,West,263,5.4,18.0,62,0.00,,---,0.00,VWS V14.01,2013-01-20 04:50:00,
2013-01-19 22:54:00,25.1,14.0,30.05,NW,310,14.4,21.6,62,0.00,,---,0.00,VWS V14.01,2013-01-20 04:54:00,
2013-01-19 23:00:00,24.7,13.7,30.05,NW,321,10.8,23.4,62,0.00,,---,0.00,VWS V14.01,2013-01-20 05:00:00,
2013-01-19 23:01:00,24.6,13.6,30.05,NW,309,7.2,9.0,62,0.00,,---,0.00,VWS V14.01,2013-01-20 05:01:00,
2013-01-19 23:03:00,24.4,13.4,30.06,NW,309,16.2,27.0,62,0.00,,---,0.00,VWS V14.01,2013-01-20 05:03:00,
2013-01-19 23:08:00,23.9,11.9,30.06,NNW,327,12.6,21.6,60,0.00,,---,0.00,VWS V14.01,2013-01-20 05:08:00,
2013-01-19 23:13:00,23.5,10.4,30.06,WNW,282,14.4,25.2,57,0.00,,---,0.00,VWS V14.01,2013-01-20 05:13:00,
2013-01-19 23:18:00,23.0,8.8,30.07,NW,318,16.2,28.8,54,0.00,,---,0.00,VWS V14.01,2013-01-20 05:18:00,
2013-01-19 23:23:00,22.5,8.7,30.06,WNW,293,10.8,19.8,55,0.00,,---,0.00,VWS V14.01,2013-01-20 05:23:00,
2013-01-19 23:28:00,22.2,8.8,30.07,NNW,340,14.4,25.2,56,0.00,,---,0.00,VWS V14.01,2013-01-20 05:28:00,
2013-01-19 23:33:00,21.9,8.9,30.07,SW,221,14.4,23.4,57,0.00,,---,0.00,VWS V14.01,2013-01-20 05:33:00,
2013-01-19 23:38:00,21.6,9.0,30.07,NW,309,18.0,25.2,58,0.00,,---,0.00,VWS V14.01,2013-01-20 05:38:00,
2013-01-19 23:43:00,21.3,8.7,30.08,WNW,302,10.8,25.2,58,0.00,,---,0.00,VWS V14.01,2013-01-20 05:43:00,
2013-01-19 23:48:00,20.9,8.3,30.08,West,280,9.0,23.4,58,0.00,,---,0.00,VWS V14.01,2013-01-20 05:48:00,
2013-01-19 23:53:00,20.7,7.4,30.09,West,277,16.2,23.4,56,0.00,,---,0.00,VWS V14.01,2013-01-20 05:53:00,
2013-01-19 23:58:00,20.6,8.4,30.09,WNW,294,3.6,14.4,59,0.00,,---,0.00,VWS V14.01,2013-01-20 05:58:00,